Home   Weather   Bern   Past weeks

Flag for Switzerland Past Weather in Bern, Bern, Switzerland — Yesterday and Last 2 Weeks

Now
23 °F

Partly sunny.


Feels Like: 16 °F
Forecast: 10 / 23 °F
Wind: 6 mph from East

Location: Bern / Belp

Current Time: Jan 18, 2017 at 11:33:47 am

Latest Report: Jan 18, 2017 at 10:50 am


Visibility: N/A

Pressure: 30.33 "Hg (28.34 "Hg at 533m altitude)

Humidity: 68%

Dew Point: 14 °F

Location of BernLocation

Past Weather in Bern — Graph

°F

Bern Temperature Yesterday

Maximum temperature yesterday: 25 °F (at 3:50 am)
Minimum temperature yesterday: 23 °F (at 12:20 am)
Average temperature yesterday: 24 °F

High & Low Weather Summary for the Past Weeks

 TemperatureHumidityPressure
High45 °F (Jan 12, 5:50 am)100% (Jan 3, 12:20 pm)30.57 "Hg (Jan 3, 12:20 pm)
Low1 °F (Jan 6, 8:20 am)56% (Jan 4, 1:20 pm)29.53 "Hg (Jan 12, 11:20 pm)
Average26 °F85%30.16 "Hg
* Reported Jan 3 10:20 am — Jan 18 10:20 am, Bern, Weather by CustomWeather, © 2017

Note: Actual official high and low records may vary slightly from our data, if they occured in-between our weather recording intervals... More about our weather records

Advertising

Bern Weather History for the Previous 24 Hours

Scroll right to see more
 ConditionsComfort  
Time TempWeatherWind HumidityBarometerVisibility
10:20 am
Wed, Jan 18
23 °FLight snow. Partly sunny.5 mph74%30.33 "HgN/A
9:50 am21 °FLight snow. Partly sunny.6 mph80%30.33 "HgN/A
9:20 am23 °FSnow flurries. Partly sunny.3 mph74%30.30 "HgN/A
8:50 am21 °FLight snow. Broken clouds.5 mph80%30.30 "Hg4 mi
8:20 am21 °FLight snow. Partly sunny.3 mph80%30.30 "Hg4 mi
7:50 am21 °FLight snow. Passing clouds.3 mph80%30.27 "Hg5 mi
7:20 am21 °FLight snow. Passing clouds.3 mph80%30.27 "Hg5 mi
6:50 am23 °FLight snow. Passing clouds.6 mph74%30.27 "Hg5 mi
6:20 am23 °FLight snow. Partly cloudy.6 mph74%30.27 "Hg5 mi
5:50 am23 °FLight snow. Passing clouds.6 mph74%30.27 "HgN/A
5:20 am23 °FLight snow. Partly cloudy.5 mph80%30.27 "Hg4 mi
4:50 am23 °FLight snow. Partly cloudy.5 mph80%30.27 "HgN/A
4:20 am23 °FLight snow. Overcast.7 mph80%30.27 "Hg5 mi
3:50 am23 °FLight snow. Partly cloudy.7 mph80%30.27 "Hg3 mi
3:20 am23 °FLight snow. Partly cloudy.6 mph80%30.27 "Hg3 mi
2:50 am23 °FLight snow. Passing clouds.7 mph80%30.27 "Hg4 mi
2:20 am23 °FLight snow. Partly cloudy.6 mph80%30.27 "Hg4 mi
1:50 am23 °FLight snow. Passing clouds.5 mph80%30.27 "Hg3 mi
1:20 am23 °FLight snow. Passing clouds.3 mph80%30.27 "HgN/A
12:50 am23 °FLight snow. Partly cloudy.3 mph80%30.27 "HgN/A
12:20 am23 °FLight snow. Partly cloudy.5 mph80%30.27 "HgN/A
11:50 pm
Tue, Jan 17
23 °FLight snow. Partly cloudy.6 mph80%30.27 "Hg1 mi
11:20 pm23 °FLight snow. Partly cloudy.6 mph80%30.27 "Hg4 mi
10:50 pm23 °FLight snow. Partly cloudy.6 mph80%30.27 "Hg5 mi
10:20 pm23 °FLight snow. Partly cloudy.8 mph80%30.27 "Hg3 mi
9:50 pm23 °FLight snow. Partly cloudy.7 mph80%30.27 "Hg3 mi
9:20 pm23 °FLight snow. Partly cloudy.7 mph80%30.27 "Hg2 mi
8:50 pm23 °FLight snow. Partly cloudy.6 mph80%30.27 "Hg2 mi
8:20 pm23 °FLight snow. Passing clouds.6 mph80%30.27 "Hg3 mi
7:50 pm23 °FLight snow. Passing clouds.7 mph80%30.27 "Hg3 mi
7:20 pm23 °FLight snow. Passing clouds.5 mph80%30.27 "Hg3 mi
6:50 pm23 °FLight snow. Passing clouds.6 mph80%30.24 "Hg3 mi
6:20 pm23 °FLight snow. Partly cloudy.6 mph80%30.24 "Hg3 mi
5:50 pm23 °FLight snow. Passing clouds.5 mph80%30.24 "Hg3 mi
5:20 pm23 °FLight snow. Passing clouds.6 mph80%30.24 "Hg3 mi
4:50 pm23 °FLight snow. Partly sunny.5 mph80%30.24 "Hg3 mi
4:20 pm23 °FLight snow. Partly sunny.7 mph80%30.24 "Hg3 mi
3:50 pm25 °FLight snow. Partly sunny.7 mph74%30.24 "Hg3 mi
3:20 pm25 °FLight snow. Partly sunny.9 mph74%30.24 "Hg3 mi
2:50 pm25 °FLight snow. Partly sunny.10 mph74%30.24 "Hg3 mi
2:20 pm25 °FLight snow. Partly sunny.10 mph69%30.24 "Hg3 mi
1:50 pm25 °FLight snow. Broken clouds.9 mph74%30.24 "Hg3 mi
1:20 pm25 °FLight snow. Broken clouds.8 mph74%30.24 "Hg3 mi
12:50 pm25 °FLight snow. Broken clouds.10 mph69%30.24 "Hg4 mi
12:20 pm25 °FLight snow. Broken clouds.13 mph74%30.24 "Hg3 mi
11:50 am25 °FLight snow. Broken clouds.9 mph74%30.24 "Hg3 mi
11:20 am25 °FLight snow. Broken clouds.9 mph69%30.27 "Hg3 mi
Weather by CustomWeather, © 2017

See weather overviewHow to use our weather pages